COSMOS 82

Satellite information

Favourite Embed

Satellite Type and Status

PAYLOADIN ORBIT

Key statistics

Satellite COSMOS 82 at a glance.

Uptime

21802

Days in orbit

Revolutions

≈ 12.5

Per day

Orbit

LEO

Low Earth Orbit

Inclination

56.1

Latest

Satellite identification and parameters

Extended collection of information and parameters for COSMOS 82.

Object identification

Identified? True

Debris? False

Object name: COSMOS 82

International designator: 1965-070C

Object number (NORAD): 1572

Object ID (CCSDS): 1572

Country: COMMONWEALTH OF INDEPENDENT STATES (CIS)

Current information (Y/N): Y

RCS size: MEDIUM

Orbital parameters

Period: 115.652 minutes

Inclination: 56.0587 deg

SMA: 7863.123 km

Apoapsis: 1545.204 km

Periapsis: 1424.772 km

RAAN: 248.734 deg

Eccentricy: 0.007658

Argument of periapsis: 84.9893 deg

Mean anomaly: 288.9929 deg

Mean motion: 12.45116968 rev/day

Mean motion (dot): -0.00000092 rev/day2

B* drag term: 0.000016019 1/REarth

Two-line elements (TLE)

Creation date: May 12, 2025, 7:41 p.m.

Reference frame: TEME

Reference center: EARTH

Epoch: May 12, 2025, 3:12 p.m. UTC

TLE line 0: 0 COSMOS 82

TLE line 1: 1 01572U 65070C 25132.63376473 -.00000092 00000-0 16019-4 0 9998

TLE line 2: 2 01572 56.0587 248.7340 0076580 84.9893 288.9929 12.45116968714319

Live tracking on map

Real-time ground track for satellite COSMOS 82.

In-orbit conjunctions

A list of the most updated potential collisions computed for object COSMOS 82.

Target Orbit TCA Probability of collision Miss distance Type
COSMOS 1132 LEO 2024-06-20 16:08:25 0.0008936991 221.0 (m) PAYLOAD

Associated space launch

The Strela-1 satellites were prototype store-dump communications satellites for tactical communication.

COSMOS 82 was lifted into orbit during the mission ‘Kosmos 65S3 | Strela-1 20 to 24’, on board a Kosmos 65S3 space rocket.

The launch took place on Sept. 3, 1965, 2 p.m. from 41/15.

For more information about the launch, click the button.

Launch to space Kosmos 65S3 | Strela-1 20 to 24
Kosmos 65S3 | Strela-1 20 to 24

Agency: N/A

Status: Launch Successful

Launch date: Sept. 3, 1965, 2 p.m. UTC

Rocket: Kosmos 65S3

Launch pad: 41/15

Location: Baikonur Cosmodrome, Republic of Kazakhstan

...

Latest news about this satellite

There are no fresh news available about this satellite. Check back as we update our databases every day.


Newsletter sign-up

Weekly statistics, charts and insights to help you stay on top of the space industry.